Weather History for KCDA - March, 2013

Change the Weather History Date:

Tuesday, March 12, 2013

  Actual Average (K1V4) Record (K1V4)
Temperature  
Mean Temperature 42 °F 28 °F  
Max Temperature 47 °F 40 °F 62 °F (1977)
Min Temperature 37 °F 17 °F -17 °F (1916)
Degree Days  
Heating Degree Days 24 37  
Month to date heating degree days 468  
Since 1 July heating degree days 6192  
Cooling Degree Days 0 0  
Month to date cooling degree days 0  
Year to date cooling degree days 0  
Moisture  
Dew Point 39 °F    
Average Humidity 84    
Maximum Humidity 90    
Minimum Humidity 58    
Precipitation  
Precipitation 0.00 in 0.08 in 1.90 in (1936)
Month to date precipitation 0.91  
Year to date precipitation 5.59  
Sea Level Pressure  
Sea Level Pressure 29.87 in    
Wind  
Wind Speed 9 mph (South)    
Max Wind Speed 15 mph    
Max Gust Speed 25 mph    
Visibility 7 miles    
Events Rain    
T = Trace of Precipitation, MM = Missing Value Source: NWS Daily Summary

Daily Weather History Graph

Daily Weather History Graph

Search for Another Location

Airport or City:

Trip Planner

Search our weather history database for the weather conditions in past years. The results will help you decide how hot, cold, wet, or windy it might be!

Date:

Astronomy

Mar. 12, 2013 Rise Set
Actual Time 7:05 AM EDT 6:50 PM EDT
Civil Twilight 6:36 AM EDT 7:19 PM EDT
Nautical Twilight 6:02 AM EDT 7:53 PM EDT
Astronomical Twilight 5:28 AM EDT 8:27 PM EDT
Moon 7:06 AM EDT (3/12) 8:07 PM EDT (3/12)
Length of Visible Light 12h 43m
Length of Day
11h 45m
New Moon, 1% of the Moon is Illuminated
Mar 12
New Moon
Mar 19
First Quarter
Mar 27
Full
Apr 3
Last Quarter
Apr 10
New

Hourly Weather History & Observations

Time (EDT) Temp. Windchill Dew Point Humidity Pressure Visibility Wind Dir Wind Speed Gust Speed Precip Events Conditions
12:15 AM 42.4 °F 35.3 °F 28.4 °F 58% 30.01 in 10.0 mi South 13.8 mph 23.0 mph N/A   Unknown
12:35 AM 42.1 °F 34.5 °F 28.9 °F 60% 30.00 in 10.0 mi South 15.0 mph 21.9 mph N/A   Unknown
12:55 AM 41.9 °F 35.4 °F 29.3 °F 61% 30.00 in 10.0 mi South 11.5 mph 21.9 mph N/A   Unknown
1:15 AM 41.9 °F 34.6 °F 29.8 °F 62% 30.01 in 10.0 mi South 13.8 mph 25.3 mph N/A   Unknown
1:35 AM 41.5 °F 34.2 °F 30.6 °F 65% 30.01 in 10.0 mi South 13.8 mph - N/A   Unknown
1:55 AM 41.4 °F 35.7 °F 31.1 °F 67% 30.02 in 10.0 mi SSE 9.2 mph 20.7 mph N/A   Unknown
2:15 AM 41.2 °F 36.6 °F 30.6 °F 66% 30.02 in 10.0 mi SSE 6.9 mph - N/A   Unknown
2:35 AM 41.2 °F 34.5 °F 31.1 °F 67% 30.00 in 10.0 mi SSE 11.5 mph 18.4 mph N/A   Unknown
2:55 AM 41.2 °F 34.5 °F 31.3 °F 68% 30.00 in 10.0 mi South 11.5 mph 16.1 mph N/A   Unknown
3:15 AM 41.0 °F 35.2 °F 32.0 °F 70% 29.99 in 10.0 mi SSE 9.2 mph - N/A   Unknown
3:35 AM 41.2 °F 35.0 °F 32.0 °F 70% 29.98 in 10.0 mi SSE 10.4 mph - N/A   Unknown
3:55 AM 41.7 °F 35.6 °F 32.5 °F 70% 29.98 in 10.0 mi South 10.4 mph 16.1 mph N/A   Unknown
4:15 AM 41.9 °F 36.3 °F 33.4 °F 72% 29.98 in 10.0 mi South 9.2 mph - N/A   Unknown
4:35 AM 42.1 °F 36.6 °F 34.0 °F 73% 29.97 in 10.0 mi South 9.2 mph - N/A   Unknown
4:55 AM 42.1 °F 35.2 °F 34.7 °F 75% 29.97 in 10.0 mi South 12.7 mph - N/A   Unknown
5:15 AM 42.8 °F 36.6 °F 35.1 °F 74% 29.96 in 10.0 mi South 11.5 mph 20.7 mph N/A   Unknown
5:35 AM 42.1 °F 36.6 °F 36.0 °F 79% 29.96 in 10.0 mi South 9.2 mph 17.3 mph N/A Rain Light Rain
5:55 AM 41.7 °F 35.6 °F 36.7 °F 82% 29.96 in 7.0 mi South 10.4 mph - N/A Rain Light Rain
6:15 AM 41.2 °F 38.2 °F 37.4 °F 86% 29.96 in 7.0 mi South 4.6 mph - N/A Rain Light Rain
6:35 AM 41.0 °F 35.8 °F 37.6 °F 88% 29.97 in 5.0 mi South 8.1 mph - N/A Rain Rain
6:55 AM 41.0 °F 35.2 °F 37.8 °F 88% 29.96 in 7.0 mi SSE 9.2 mph 17.3 mph N/A Rain Light Rain
7:15 AM 41.0 °F 36.4 °F 38.3 °F 90% 29.95 in 5.0 mi SSE 6.9 mph - N/A Rain Light Rain
7:35 AM 41.2 °F 36.0 °F 38.3 °F 89% 29.95 in 5.0 mi South 8.1 mph - N/A Rain Light Rain
7:55 AM 41.9 °F 36.9 °F 39.2 °F 90% 29.95 in 5.0 mi South 8.1 mph - N/A Rain Light Rain
8:15 AM 42.1 °F 36.6 °F 39.2 °F 90% 29.94 in 5.0 mi South 9.2 mph - N/A Rain Light Rain
8:55 AM 42.3 °F 38.6 °F 39.4 °F 90% 29.93 in 5.0 mi South 5.8 mph - N/A Rain Light Rain
9:15 AM 42.6 °F 38.4 °F 39.7 °F 90% 29.93 in 4.0 mi South 6.9 mph - N/A Rain Light Rain
9:35 AM 42.8 °F 39.3 °F 40.1 °F 90% 29.93 in 5.0 mi South 5.8 mph - N/A Rain Light Rain
10:15 AM 43.5 °F 40.1 °F 40.6 °F 90% 29.92 in 5.0 mi South 5.8 mph - N/A Rain Light Rain
10:35 AM 43.7 °F 39.7 °F 40.6 °F 89% 29.92 in 5.0 mi South 6.9 mph - N/A Rain Rain
10:55 AM 43.7 °F 40.3 °F 41.0 °F 90% 29.91 in 5.0 mi South 5.8 mph - N/A Rain Rain
11:15 AM 44.4 °F 40.5 °F 41.4 °F 89% 29.91 in 7.0 mi South 6.9 mph - N/A Rain Light Rain
11:35 AM 44.6 °F 41.4 °F 41.5 °F 89% 29.91 in 7.0 mi SSW 5.8 mph - N/A Rain Light Rain
11:55 AM 44.6 °F 42.2 °F 41.5 °F 89% 29.90 in 7.0 mi South 4.6 mph - N/A Rain Light Rain
12:15 PM 44.6 °F 42.2 °F 41.7 °F 90% 29.89 in 7.0 mi South 4.6 mph - N/A Rain Light Rain
12:35 PM 45.0 °F 41.8 °F 42.1 °F 90% 29.89 in 7.0 mi South 5.8 mph - N/A Rain Rain
12:55 PM 45.0 °F 42.6 °F 42.1 °F 90% 29.88 in 7.0 mi South 4.6 mph - N/A Rain Light Rain
1:15 PM 45.5 °F 42.5 °F 42.8 °F 90% 29.87 in 7.0 mi SSE 5.8 mph - N/A Rain Light Rain
1:35 PM 45.7 °F 43.4 °F 42.8 °F 90% 29.86 in 10.0 mi SE 4.6 mph - N/A Rain Light Rain
1:55 PM 45.5 °F 43.2 °F 42.8 °F 90% 29.85 in 7.0 mi South 4.6 mph - N/A Rain Rain
2:15 PM 45.7 °F 42.7 °F 42.8 °F 90% 29.85 in 10.0 mi SSE 5.8 mph - N/A Rain Light Rain
2:35 PM 45.7 °F 40.6 °F 42.8 °F 90% 29.84 in 10.0 mi SSE 10.4 mph - N/A Rain Light Rain
2:55 PM 45.9 °F 41.7 °F 42.4 °F 88% 29.83 in 7.0 mi SSE 8.1 mph - N/A Rain Rain
3:15 PM 45.9 °F 42.9 °F 42.8 °F 89% 29.82 in 7.0 mi SSE 5.8 mph - N/A Rain Light Rain
3:35 PM 45.9 °F 42.9 °F 42.8 °F 89% 29.81 in 7.0 mi South 5.8 mph - N/A Rain Light Rain
3:55 PM 45.9 °F 42.9 °F 42.6 °F 88% 29.81 in 7.0 mi South 5.8 mph - N/A Rain Light Rain
4:15 PM 45.7 °F 44.4 °F 42.8 °F 90% 29.80 in 5.0 mi South 3.5 mph - N/A Rain Rain
4:35 PM 45.7 °F 44.4 °F 42.8 °F 90% 29.79 in 5.0 mi South 3.5 mph - N/A Rain Rain
4:55 PM 45.9 °F - 43.0 °F 90% 29.78 in 4.0 mi Calm Calm - N/A Rain Rain
5:15 PM 45.7 °F 44.4 °F 42.8 °F 90% 29.77 in 7.0 mi South 3.5 mph - N/A Rain Rain
5:35 PM 45.9 °F 44.6 °F 43.0 °F 90% 29.76 in 4.0 mi South 3.5 mph - N/A Rain Rain
5:55 PM 45.7 °F - 42.8 °F 90% 29.76 in 5.0 mi Calm Calm - N/A Rain Rain
6:15 PM 46.0 °F 43.9 °F 43.2 °F 90% 29.75 in 5.0 mi South 4.6 mph - N/A Rain Rain
6:35 PM 46.2 °F 45.0 °F 43.5 °F 90% 29.75 in 5.0 mi SSW 3.5 mph - N/A Rain Rain
6:55 PM 46.6 °F - 43.7 °F 90% 29.73 in 5.0 mi SSE 5.8 mph - N/A Rain Rain
7:15 PM 46.6 °F - 43.7 °F 90% 29.71 in 7.0 mi ESE 3.5 mph - N/A Rain Light Rain
7:35 PM 46.6 °F - 43.7 °F 90% 29.70 in 7.0 mi SE 5.8 mph - N/A Rain Light Rain
7:55 PM 46.9 °F - 44.1 °F 90% 29.69 in 10.0 mi SSE 4.6 mph - N/A Rain Rain
8:15 PM 46.6 °F - 43.5 °F 89% 29.69 in 7.0 mi SSW 3.5 mph - N/A   Drizzle
8:35 PM 46.6 °F - 43.7 °F 90% 29.69 in 7.0 mi SW 4.6 mph - N/A   Drizzle
8:55 PM 46.0 °F 42.5 °F 43.2 °F 90% 29.70 in 1.8 mi West 6.9 mph - N/A Rain Rain
9:15 PM 45.9 °F 42.9 °F 43.2 °F 90% 29.70 in 3.0 mi West 5.8 mph - N/A Rain Rain
9:35 PM 41.4 °F 33.6 °F 38.5 °F 89% 29.71 in 4.0 mi West 15.0 mph 20.7 mph N/A Rain Light Rain
9:55 PM 39.4 °F 31.1 °F 36.0 °F 88% 29.72 in 4.0 mi WNW 15.0 mph 21.9 mph N/A Rain Rain
10:15 PM 38.7 °F 32.4 °F 35.1 °F 87% 29.73 in 7.0 mi WNW 9.2 mph - N/A   Light Drizzle
10:35 PM 38.1 °F 32.9 °F 34.2 °F 86% 29.75 in 10.0 mi NW 6.9 mph 18.4 mph N/A   Unknown
10:55 PM 37.9 °F 32.1 °F 34.7 °F 88% 29.75 in 3.0 mi WNW 8.1 mph - N/A Rain Rain
11:15 PM 37.8 °F 31.3 °F 34.7 °F 89% 29.76 in 4.0 mi WNW 9.2 mph - N/A   Drizzle
11:35 PM 37.0 °F 32.4 °F 33.8 °F 88% 29.77 in 3.0 mi WNW 5.8 mph - N/A   Drizzle
11:55 PM 37.0 °F 31.0 °F 34.0 °F 89% 29.78 in 5.0 mi WNW 8.1 mph - N/A Rain Light Rain